This demonstration page uses our WeatherBlox Daily Observations layout. Learn more.

Left ArrowRight Arrow

Hourly Observations for August 10, 2016

Temp ( °F °C ) Dew Point ( °F °C ) Humidity (%) Winds ( mph kmh ) Pressure ( in mb ) Visibility ( mi km ) Precip ( " mm )
12:15 am 00:15 Partly Cloudy 75 24 73 23 94 94 SSE 6 9 30 1016 10 16.0934 N/A
12:34 am 00:34 Clear 75 24 73 23 94 94 SE 5 7 30 1016 10 16.0934 N/A
12:54 am 00:54 Clear 75 24 73 23 94 94 SSE 5 7 30.03 1017 10 16.0934 N/A
1:14 am 01:14 Clear 73 23 72 22 94 94 Calm 30.03 1017 10 16.0934 N/A
1:34 am 01:34 Partly Cloudy 73 23 72 22 94 94 Calm 30.03 1017 10 16.0934 N/A
1:54 am 01:54 Clear 72 22 72 22 100 100 SSE 3 6 30.03 1017 7 11.26538 N/A
2:14 am 02:14 Clear 73 23 72 22 94 94 Calm 30.03 1017 7 11.26538 N/A
2:34 am 02:34 Clear 73 23 72 22 94 94 Calm 30.03 1017 7 11.26538 N/A
2:54 am 02:54 Clear 72 22 72 22 100 100 Calm 30 1016 7 11.26538 N/A
3:14 am 03:14 Clear 70 21 70 21 100 100 Calm 30.06 1018 4 6.43736 N/A
3:34 am 03:34 Clear 70 21 70 21 100 100 Calm 30.06 1018 3 4.82802 N/A
3:54 am 03:54 Clear 70 21 70 21 100 100 Calm 30.06 1018 3 4.82802 N/A
4:14 am 04:14 Clear 70 21 70 21 100 100 Calm 30.06 1018 2 3.21868 N/A
4:34 am 04:34 Clear 70 21 70 21 100 100 Calm 30.06 1018 3 4.82802 N/A
4:54 am 04:54 Partly Cloudy 70 21 70 21 100 100 Calm 30.06 1018 2 3.21868 N/A
5:14 am 05:14 Mostly Cloudy 70 21 70 21 100 100 Calm 30.06 1018 7 11.26538 N/A
5:34 am 05:34 Mostly Cloudy 72 22 70 21 94 94 Calm 30.03 1017 5 8.0467 N/A
5:54 am 05:54 Mostly Cloudy 72 22 70 21 94 94 Calm 30.03 1017 4 6.43736 N/A
6:14 am 06:14 Cloudy 72 22 70 21 94 94 Calm 30.03 1017 3 4.82802 N/A
6:34 am 06:34 Cloudy 72 22 72 22 100 100 ESE 3 6 30.03 1017 2 3.21868 N/A
6:55 am 06:55 Cloudy 72 22 72 22 100 100 SE 6 9 30.03 1017 3 4.82802 N/A
7:14 am 07:14 Cloudy 72 22 72 22 100 100 Calm 30.03 1017 3 4.82802 N/A
7:34 am 07:34 Cloudy 73 23 72 22 94 94 SE 3 6 30.06 1018 2 3.21868 N/A
7:54 am 07:54 Cloudy 73 23 73 23 100 100 SSE 5 7 30.06 1018 2 3.21868 N/A
8:14 am 08:14 Cloudy 73 23 73 23 100 100 SSE 5 7 30.06 1018 3 4.82802 N/A
8:34 am 08:34 Cloudy 75 24 73 23 94 94 Calm 30.06 1018 3 4.82802 N/A
8:54 am 08:54 Mostly Cloudy 75 24 73 23 94 94 Calm 30.06 1018 5 8.0467 N/A
9:14 am 09:14 Sunny 77 25 73 23 89 89 Calm 30.06 1018 7 11.26538 N/A
9:34 am 09:34 Partly Cloudy 79 26 75 24 89 89 S 3 6 30.09 1019 10 16.0934 N/A
9:54 am 09:54 Sunny 81 27 75 24 84 84 S 3 6 30.09 1019 10 16.0934 N/A
10:14 am 10:14 Sunny 82 28 75 24 79 79 S 6 9 30.09 1019 10 16.0934 N/A
10:34 am 10:34 Partly Cloudy 81 27 75 24 84 84 Calm 30.09 1019 10 16.0934 N/A
10:54 am 10:54 Cloudy 82 28 75 24 79 79 Calm 30.09 1019 10 16.0934 N/A
11:14 am 11:14 Cloudy 82 28 75 24 79 79 Calm 30.09 1019 10 16.0934 N/A
11:34 am 11:34 Mostly Cloudy 82 28 75 24 79 79 SE 5 7 30.09 1019 10 16.0934 N/A
11:54 am 11:54 Cloudy 84 29 77 25 79 79 S 7 11 30.09 1019 10 16.0934 N/A
12:14 pm 12:14 Cloudy 82 28 77 25 84 84 SSE 5 7 30.09 1019 10 16.0934 N/A
12:34 pm 12:34 Mostly Cloudy 84 29 77 25 79 79 SSW 7 11 30.09 1019 10 16.0934 N/A
12:54 pm 12:54 Mostly Cloudy 84 29 77 25 79 79 SSW 6 9 30.09 1019 10 16.0934 N/A
1:14 pm 13:14 Mostly Cloudy 84 29 77 25 79 79 S 6 9 30.09 1019 10 16.0934 N/A
1:34 pm 13:34 Mostly Cloudy 84 29 75 24 74 74 E 3 6 30.06 1018 10 16.0934 N/A
1:54 pm 13:54 Partly Cloudy 82 28 75 24 79 79 S 5 7 30.06 1018 10 16.0934 N/A
2:14 pm 14:14 Mostly Cloudy 82 28 75 24 79 79 W 10 17 30.09 1019 10 16.0934 N/A
2:34 pm 14:34 Cloudy 77 25 75 24 94 94 W 6 9 30.09 1019 4 6.43736 N/A
2:54 pm 14:54 Cloudy 77 25 75 24 94 94 S 5 7 30.09 1019 2.5 4.02335 N/A
3:14 pm 15:14 Cloudy 77 25 75 24 94 94 W 6 9 30.09 1019 1.75 2.816345 N/A
3:34 pm 15:34 Cloudy 75 24 73 23 94 94 Calm 30.09 1019 1.5 2.41401 N/A
3:54 pm 15:54 Mostly Cloudy 75 24 75 24 100 100 Calm 30.09 1019 5 8.0467 N/A
4:14 pm 16:14 Partly Cloudy 75 24 75 24 100 100 ESE 6 9 30.09 1019 5 8.0467 N/A
4:34 pm 16:34 Mostly Cloudy 77 25 75 24 94 94 SSE 5 7 30.09 1019 5 8.0467 N/A
4:54 pm 16:54 Cloudy 77 25 75 24 94 94 S 3 6 30.09 1019 10 16.0934 N/A
5:14 pm 17:14 Cloudy 77 25 75 24 94 94 SSW 6 9 30.06 1018 10 16.0934 N/A
5:35 pm 17:35 Mostly Cloudy 77 25 75 24 94 94 S 5 7 30.06 1018 10 16.0934 N/A
5:54 pm 17:54 Partly Cloudy 77 25 75 24 94 94 SSE 8 13 30.06 1018 7 11.26538 N/A
6:14 pm 18:14 Sunny 77 25 73 23 89 89 SSE 7 11 30.03 1017 10 16.0934 N/A
6:34 pm 18:34 Sunny 77 25 75 24 94 94 S 7 11 30.03 1017 10 16.0934 N/A
6:54 pm 18:54 Partly Cloudy 77 25 73 23 89 89 S 5 7 30.03 1017 10 16.0934 N/A
7:14 pm 19:14 Partly Cloudy 79 26 75 24 89 89 Calm 30.03 1017 10 16.0934 N/A
7:35 pm 19:35 Sunny 79 26 73 23 84 84 Calm 30.03 1017 10 16.0934 N/A
7:54 pm 19:54 Sunny 77 25 75 24 94 94 Calm 30.03 1017 10 16.0934 N/A
8:14 pm 20:14 Sunny 77 25 75 24 94 94 ESE 3 6 30.03 1017 10 16.0934 N/A
8:35 pm 20:35 Sunny 75 24 73 23 94 94 ESE 6 9 30.06 1018 10 16.0934 N/A
8:54 pm 20:54 Clear 75 24 73 23 94 94 SE 5 7 30.03 1017 10 16.0934 N/A
9:14 pm 21:14 Clear 75 24 73 23 94 94 SSE 6 9 30.03 1017 10 16.0934 N/A
9:35 pm 21:35 Clear 75 24 73 23 94 94 S 5 7 30.06 1018 10 16.0934 N/A
9:54 pm 21:54 Mostly Cloudy 75 24 73 23 94 94 SE 3 6 30.06 1018 10 16.0934 N/A
10:14 pm 22:14 Cloudy 75 24 73 23 94 94 SSE 3 6 30.06 1018 10 16.0934 N/A
10:35 pm 22:35 Mostly Cloudy 73 23 72 22 94 94 SSE 3 6 30.06 1018 10 16.0934 N/A
10:54 pm 22:54 Mostly Cloudy 73 23 72 22 94 94 SSE 5 7 30.06 1018 10 16.0934 N/A
11:14 pm 23:14 Partly Cloudy 73 23 72 22 94 94 SE 5 7 30.06 1018 10 16.0934 N/A
11:34 pm 23:34 Partly Cloudy 73 23 72 22 94 94 SSE 5 7 30.06 1018 10 16.0934 N/A
11:54 pm 23:54 Mostly Cloudy 73 23 72 22 94 94 SSE 3 6 30.06 1018 10 16.0934 N/A

Powered by AerisWeather